Regional Weather Roundup
Issued by NWS Grand Forks, ND

Home | Current Version | Previous Version | Graphics & Text | Print | Product List | Glossary On
Versions: 1 2 3 4 5 6 7 8 9 10 11 12 13 14 15 16 17 18 19 20 21 22 23 24 25 26 27 28 29 30 31 32 33 34 35 36 37 38 39 40 41 42 43 44 45 46 47 48 49 50
000
ASUS43 KFGF 280310
RWRFGF
PRAIRIE TO PINES  WEATHER ROUNDUP
NATIONAL WEATHER SERVICE EASTERN NORTH DAKOTA/GRAND FORKS ND
1000 PM CDT MON MAR 27 2017

 **SATELLITE DATA USED TO AUGMENT SKY COVER AT AUTOMATED STATIONS**
 *****  WEATHER ACROSS EASTERN NORTH DAKOTA  *****

CITY           SKY/WX    TMP DP  RH WIND       PRES   REMARKS
GRAND FORKS    FOG       37  37 100 N8        30.05S VSB 1
GRAND FRKS AFB FOG       36  36 100 N10       30.07R VSB 1
DEVILS LAKE    CLOUDY    35  35 100 E10       30.05R FOG
FARGO          FAIR      40  39  97 N10       30.02R FOG
WAHPETON ARPT  FAIR      43  34  70 CALM      30.00R
$$

 ***** WEATHER ACROSS CENTRAL AND WESTERN NORTH DAKOTA  *****

CITY           SKY/WX    TMP DP  RH WIND       PRES   REMARKS
BISMARCK       FAIR      46  34  62 NE5       29.98R
MINOT          FOG       36  35  96 E7        30.03R VSB 3/4
JAMESTOWN      FAIR      39  37  92 E8        30.00R
MINOT AFB      FOG       36  36 100 E9        30.02R VSB 3/4
GARRISON         N/A     37  35  92 NE7       30.00R
WILLISTON      LGT RAIN  45  37  73 NE14      30.00R
DICKINSON      FAIR      43  35  73 NE10      29.92R
HETTINGER      FAIR      46  30  53 E8        29.95R
$$

 *****  OTHER AIRPORT OBSERVATIONS IN OUR AREA  *****

CITY           SKY/WX    TMP DP  RH WIND       PRES   REMARKS
WALHALLA       NOT AVBL
GRAFTON AIRPOR FOG       34  34 100 W7        30.09S VSB 1/4
VALLEY CITY AR FAIR      39  39 100 E8        30.03R FOG
CANDO          NOT AVBL
CAVALIER APRT  MOCLDY    36  34  93 NW8       30.08R
GWINNER        CLEAR     43  37  81 MISG      30.01R
SHEYENNE NWR     N/A     45  39  80 NE6       29.95S
ROLLA          CLOUDY    32  32 100 NE8       30.07R WCI  25
 ***** THE ABOVE OBSERVATIONS ARE NON NWS ARE NOT QUALITY
       CONTROLLED AND MAY MIS-REPORT RAIN FOR SNOW...
$$

  *****  WEATHER ACROSS NORTHERN MINNESOTA  *****

CITY           SKY/WX    TMP DP  RH WIND       PRES   REMARKS
FLAG ISLAND    FAIR      41  28  60 N7        30.04S
WARROAD        FAIR      37  32  81 N3        30.05S
ROSEAU         FAIR      39  34  81 N6        30.05R
HALLOCK        CLOUDY    36  36 100 NW5       30.07R
THF RVR FALLS  CLOUDY   N/A N/A N/A N7        30.05R
BAUDETTE       CLOUDY    41  30  65 N8        30.03R
WASKISH        FAIR      36  30  80 CALM      30.02R
CROOKSTON      SNOW      37  37 100 N10       30.06R VSB 1/4
GREENBUSH NDAW   N/A     36  36 100 NW2         N/A
$$
  *****  WEATHER ACROSS CENTRAL AND WEST MINNESOTA  *****

CITY           SKY/WX    TMP DP  RH WIND       PRES   REMARKS
FOSSTON        FAIR      34  30  86 CALM      30.04R
BEMIDJI        FAIR      38  29  70 E3        30.00R
PARK RAPIDS    FAIR      40  25  55 CALM      30.00R
ELBOW LAKE     FAIR      43  37  80 N3        30.01R
WADENA         FAIR      39  32  75 CALM      30.00R
DETROIT LAKES  FAIR      43  41  93 N5        30.02R
MOORHEAD       FAIR      41  39  93 N8        30.03R FOG
FERGUS FALLS   FAIR      45  37  76 CALM      30.03R
MORRIS MN      FAIR      43  34  70 S3        30.00R
STAPLES        FAIR      41  34  75 CALM      30.01R
$$
  *****  WEATHER ELSEWHERE ACROSS MINNESOTA  *****

CITY           SKY/WX    TMP DP  RH WIND       PRES   REMARKS
DULUTH         FAIR      38  31  76 SE3       30.01R
INTRNTL FALLS  CLOUDY    39  27  62 N5        30.01R
ELY            FAIR      30  21  69 CALM      30.01R
CLOQUET        FAIR      36  28  75 CALM      30.01S
WHEATON        FAIR      41  34  75 CALM      30.02R
BRAINERD       FAIR      36  29  75 CALM      30.01R
HIBBING        FAIR      29  25  85 NW3       30.00R
ALEXANDRIA     FAIR      43  35  73 CALM      30.01R
SAINT CLOUD    FAIR      39  34  82 N5        30.01R
MINNEAPOLIS    FAIR      47  36  65 S5        30.00R
$$

  *****  WEATHER ACROSS SOUTH DAKOTA  *****

CITY           SKY/WX    TMP DP  RH WIND       PRES   REMARKS
SIOUX FALLS    FAIR      48  39  71 SE8       29.99R
BROOKINGS      MOCLDY    46  37  71 SE6       29.99R
WATERTOWN      CLOUDY    47  36  65 E6        29.99R
HURON          FAIR      47  37  68 E5        29.97R
SISSETON         N/A     42  34  73 CALM      29.99R
ABERDEEN       CLOUDY    46 N/A N/A E3        29.99R
MITCHELL       FAIR      49  36  61 S8        29.97R
PIERRE         FAIR      43  33  68 NE7       29.94R
MOBRIDGE       FAIR      47  35  63 E7        29.95R
RAPID CITY     FAIR      49  35  58 E14       29.90R
$$

  *****  SOME WEATHER IN NEARBY STATES *****

CITY           SKY/WX    TMP DP  RH WIND       PRES   REMARKS
GLASGOW MT     FAIR      45  34  65 E13       29.93R
GREAT FALLS MT CLOUDY    43  30  60 SW12      29.98R
CHEYENNE WY    LGT RAIN  43  39  86 NE3       29.86F
SCOTTSBLUFF NE CLOUDY    58  34  40 E10       29.84R
OMAHA NE       CLOUDY    49  40  71 E6        29.99R
DES MOINES IA  CLOUDY    49  40  71 N8        30.00R
DAVENPORT IA   CLOUDY    48  45  89 N3        29.98R
CHICAGO IL     CLOUDY    43  36  76 NE12      29.97R
EAU CLAIRE WI  FAIR      37  35  92 CALM      30.00R
LA CROSSE WI   CLOUDY    44  39  82 NW5       30.01R
$$

  *****  SOME NATIONAL WEATHER *****

CITY           SKY/WX    TMP DP  RH WIND       PRES   REMARKS
LA GUARDIA NY  CLOUDY    44  40  85 NE5       30.01S
RALEIGH NC     MOCLDY    69  55  60 S9        29.98S
ATLANTA GA     CLOUDY    71  54  54 S9        29.97R
NEW ORLEANS LA MOCLDY    72  69  90 S7        29.97R
OKLAHOMA CITY  FAIR      58  47  66 NE10      29.93R
ALBUQUERQUE NM CLOUDY    55  37  50 N16       29.86S
SALT LAKE CITY MOCLDY    44  39  82 N10       29.95R
LOS ANGELES CA FAIR      66  33  29 NW10G18   29.94R
BOISE ID       FAIR      47  31  53 NW10      30.12R
SEATTLE WA     MOCLDY    48  42  80 SW12      30.21R
$$

*** WEATHER ACROSS MANITOBA...SASKATCHEWAN AND ONTARIO ***
                ***ONTARIO***

CITY           SKY/WX    TMP DP  RH WIND       PRES   REMARKS
GERALDTON      PTCLDY    30  21  69 N2        29.99S
THUNDER BAY    PTCLDY    30  28  93 SW2       30.02R
SIOUX LOOKOUT  MOCLDY    32  27  80 N2        30.04R
TORONTO        CLOUDY    54  50  87 W7        29.89R
BIG TROUT LK   FLURRIES  19  10  68 N8        30.15R WCI   9
PICKLE LAKE    NOT AVBL
DRYDEN         CLOUDY    41  27  56 N5        30.04R
KENORA         MOCLDY    41  28  60 N6        30.05R
$$
                *** MANITOBA***

CITY           SKY/WX    TMP DP  RH WIND       PRES   REMARKS
BRANDON        PTCLDY    32  28  86 NE14      30.10S WCI  22
DAUPHIN        CLOUDY    32  28  86 N2        30.17R
ISLAND LAKE    PTCLDY    19  10  68 N3        30.22R
PILOT MOUND      N/A     34  30  86 NE8         N/A
THE PAS        PTCLDY    21  14  73 CALM      30.22R
THOMPSON       NOT AVBL
WINNIPEG       MOCLDY    34  27  75 NE14      30.11R WCI  24
LYNN LAKE      CLEAR     16  12  86 E3        30.24R
CHURCHILL      CRYSTALS   0  -2  92 N12       30.37S WCI -18
GILLAM         PTCLDY     9   5  85 NE7       30.30R WCI  -3
$$
                ***SASKATCHEWAN***

CITY           SKY/WX    TMP DP  RH WIND       PRES   REMARKS
ESTEVAN        CLOUDY    34  34 100 SE2       30.05S FOG
KINDERSLEY     CLOUDY    39  34  81 E16       29.94R
LLOYDMINSTER   FLURRIES  34  34 100 SE8       29.98R
PRINCE ALBERT  MOCLDY    32  25  74 E7        30.10R
REGINA         CLOUDY    36  36 100 E15       30.04R
YORKTON        CLOUDY    34  30  86 E10       30.10R
N. BATTLEFORD  CLOUDY    36  36 100 E15       30.02S
LA RONGE       MOCLDY    30  21  69 E6        30.14R WCI  24
SASKATOON      CLOUDY    37  32  81 E10       30.05R
SWIFT CURRENT  CLOUDY    39  34  81 SE10      29.95R
$$
NOTE: THESE ARE AUTOMATED STATIONS WITH LIMITED QUALITY CONTROL
      "FAIR" INDICATES FEW OR NO CLOUDS BELOW 12,000 FEET WITH NO
      SIGNIFICANT WEATHER AND/OR OBSTRUCTIONS TO VISIBILITY.
      SKY/WX - SKY CONDITION AND SIGNIFICANT WEATHER.
      TMP - AIR TEMPERATURE.    DP   - DEWPOINT TEMPERATURE.
      RH  - RELATIVE HUMIDITY.  PRES - PRESSURE.
      HX  - HEAT INDEX.         WCI  - WIND CHILL INDEX.
$



USA.gov is the U.S. government's official web portal to all federal, state and local government web resources and services.